DELTA 1 DEB, 12537

Orbit data source: Space-Track

DELTA 1 DEB, 12537 is space debris in SSO originally from a launch on Thu, 29 Jul 1976 UTC launched from the Air Force Western Test Range (AFWTR). Debris objects in space refer to the collection of defunct objects orbiting the Earth. Examples of debris include non-operational satellites, rocket bodies, and fragments generated from explosions, collisions, or faulty payload assembly.

Loading next visibility...
Identifier
12537, 1976-077DS
Orbit
SSO
Country
Flag of USUS
Related business
Manufacturer
Unknown
Mission
Spacecraft
Bus & Motor
Unknown
Mass
Unknown
Launch date (UTC)
1976-07-29 (50 years ago)
Launch vehicle
Unknown
Launch site
Air Force Western Test Range (AFWTR)
Object type
Payload
Rocket body
Debris
Shape & HBR
Unknown shape, 0.1 m
Radar Cross Section
Small (<0.1 m²)

Expand to show TLE details & history
Last TLE update: 6 hours ago

TLE from 6 hours ago
0 DELTA 1 DEB
1 12537U 76077DS  26121.18059954  .00000106  00000-0  15312-2 0  9999
2 12537 102.3093  85.9164 0161942 357.5289 118.3906 12.11613926 31131
Epoch: 2026-05-01T04:20Z
TLE epoch observation values (Epoch: 2026-05-01T04:20:03.800Z)
Latitude
60.12448°
Longitude
3.9959°
Altitude
1,702.563 km
Speed
7.002 km/s
True Right ascension
19h 12m 30s
True Declination
59° 59' 35"
Sunlit
Object was in daylight at epoch
Visualization orbit readout
Latitude
Unknown
Longitude
Unknown
Altitude
Unknown
Speed
Unknown
Apparent Right ascension
Unknown
Apparent Declination
Unknown
Sunlit
N/A
Visualization observer readout
Local Sidereal Time
18:12:59
Azimuth
Unknown
Elevation
Unknown
Doppler factor
Unknown
Orbital elements
Apogee altitude
1,756.543 km
Perigee altitude
1,497.272 km
Semi-major axis
8,005.044 km
Eccentricity
0.01619
Inclination
102.3093°
RAAN
85.9164°
Arg. of periapsis
357.5289°
True anomaly
120.00734°
Mean anomaly
118.3906°
Eccentric anomaly
119.20054°
Mean motion
3.03038 °/min
Orbital period
118.8 mins
BSTAR
0.0015312
Loading maneuver chart data...
Computing Atmospheric mass density...
Loading historical data...
Loading historical data...
Loading historical data...
Loading historical data...
Loading historical data...
Loading historical data...
Loading historical data...

Documentation

Showing up to 5 results
|